This is the latest recevied weather packets stored in our database for station/object KB1RMA-4. If no packets are shown the sender has not sent any weather packets the latest 10 day(s).
| Time | Temp. | Humidity | Pressure | Rain* | Wind** | Luminosity | Snow |
|---|---|---|---|---|---|---|---|
| 1787874919 | 23.33° C | 60% | 1015.9 hPa | 0 mm | - | 0 W/m² | - |
| 1787874616 | 23.33° C | 59% | 1015.9 hPa | 0 mm | - | 0 W/m² | - |
| 1787874314 | 23.89° C | 60% | 1015.9 hPa | 0 mm | - | 0 W/m² | - |
| 1787874014 | 23.89° C | 59% | 1015.8 hPa | 0 mm | - | 0 W/m² | - |
| 1787873713 | 23.89° C | 59% | 1015.6 hPa | 0 mm | - | 0 W/m² | - |
| 1787873409 | 23.89° C | 58% | 1015.6 hPa | 0 mm | - | 0 W/m² | - |
| 1787873103 | 24.44° C | 57% | 1015.5 hPa | 0 mm | - | 1 W/m² | - |
| 1787872803 | 24.44° C | 56% | 1015.7 hPa | 0 mm | - | 4 W/m² | - |
| 1787872498 | 25° C | 53% | 1015.6 hPa | 0 mm | - | 6 W/m² | - |
| 1787872194 | 25° C | 52% | 1015.6 hPa | 0 mm | - | 10 W/m² | - |
| 1787871892 | 25° C | 52% | 1015.7 hPa | 0 mm | - | 14 W/m² | - |
| 1787871588 | 25° C | 51% | 1015.6 hPa | 0 mm | - | 17 W/m² | - |
| 1787871284 | 25.56° C | 51% | 1015.5 hPa | 0 mm | - | 18 W/m² | - |
| 1787870983 | 25.56° C | 51% | 1015.7 hPa | 0 mm | - | 22 W/m² | - |
| 1787870678 | 25.56° C | 51% | 1015.5 hPa | 0 mm | - | 32 W/m² | - |
| 1787870378 | 25.56° C | 52% | 1015.5 hPa | 0 mm | - | 39 W/m² | - |
| 1787870074 | 25.56° C | 53% | 1015.5 hPa | 0 mm | - | 35 W/m² | - |
| 1787869772 | 26.11° C | 53% | 1015.8 hPa | 0 mm | - | 42 W/m² | - |
| 1787869467 | 26.67° C | 53% | 1015.4 hPa | 0 mm | - | 48 W/m² | - |
| 1787869161 | 26.67° C | 52% | 1015.6 hPa | 0 mm | - | 56 W/m² | - |
| 1787868861 | 26.67° C | 52% | 1015.7 hPa | 0 mm | - | 71 W/m² | - |
| 1787868560 | 26.67° C | 51% | 1015.7 hPa | 0 mm | - | 71 W/m² | - |
| 1787868259 | 27.22° C | 51% | 1015.8 hPa | 0 mm | - | 99 W/m² | - |
| 1787867954 | 27.22° C | 51% | 1015.6 hPa | 0 mm | - | 100 W/m² | - |
| 1787867650 | 27.22° C | 51% | 1015.6 hPa | 0 mm | - | 94 W/m² | - |
* Rain latest hour (hover to see other rain measurements)
** Current wind speed in m/s (hover to see current wind gust speed)